STARLINK-36077, 66903

Orbit data source: Space-Track

STARLINK-36077, 66903 is a payload satellite owned by SpaceX/Seattle (US) in LEO that was launched on Thu, 04 Dec 2025 UTC via an FALCON 9 launch vehicle from the Air Force Western Test Range (AFWTR). Payload-class satellites include a variety of spacecraft equipped with specific instruments for various scientific and technological missions. These include communications satellites like Starlink; space stations such as the ISS; scientific satellites like the Hubble; Earth observation satellites from companies like Planet Labs, Umbra, and HawkEye 360; GPS; miniature CubeSats for education and research; and military/defense satellites.

Loading next visibility...
Identifier
66903, 2025-283AB
Orbit
LEO
Country
Flag of USUS
Related business
Manufacturer
SpaceX/Seattle
Mission
Operational Commercial Communications
Bus & Motor
STARLINK V2MO, Unknown motor
Mass
575 kg wet, ~530 kg dry
Launch date (UTC)
2025-12-04 (7 months ago)
Launch vehicle
FALCON 9
Launch site
Air Force Western Test Range (AFWTR)
Object type
Payload
Rocket body
Debris
Shape & HBR
Box + 2 Pan, 17.7 m
Radar Cross Section
36.964 m², Large (>1 m²)

Expand to show TLE details & history
Last TLE update: 13 hours ago

TLE from 13 hours ago
0 STARLINK-36077
1 66903U 25283AB  26171.29021392  .00033481  00000-0  99720-3 0  9998
2 66903  53.1580 266.8262 0000720  84.2992 275.8093 15.34413888 31567
Epoch: 2026-06-20T06:57Z
TLE epoch observation values (Epoch: 2026-06-20T06:57:54.482Z)
Latitude
-0°
Longitude
-106.15777°
Altitude
463.513 km
Speed
7.636 km/s
True Right ascension
17h 47m 18s
True Declination
0° 00' 00"
Sunlit
Object was in full shadow at epoch
Visualization orbit readout
Latitude
Unknown
Longitude
Unknown
Altitude
Unknown
Speed
Unknown
Apparent Right ascension
Unknown
Apparent Declination
Unknown
Sunlit
N/A
Visualization observer readout
Local Sidereal Time
07:13:10
Azimuth
Unknown
Elevation
Unknown
Doppler factor
Unknown
Orbital elements
Apogee altitude
463.412 km
Perigee altitude
462.427 km
Semi-major axis
6,841.056 km
Eccentricity
0.00007
Inclination
53.158°
RAAN
266.8262°
Arg. of periapsis
84.2992°
True anomaly
275.80109°
Mean anomaly
275.8093°
Eccentric anomaly
275.8052°
Mean motion
3.83582 °/min
Orbital period
93.85 mins
BSTAR
0.0009972
Loading maneuver chart data...
Computing Atmospheric mass density...
Loading historical data...
Loading historical data...
Loading historical data...
Loading historical data...
Loading historical data...
Loading historical data...
Loading historical data...

Documentation

Showing up to 5 results
|